sat.trackr.live / text

‹ back to catalog

STARLINK-36328

NORAD 68096 · 2026-042AD

PAYLOAD ACTIVE UNKNOWN

§ Identity

Operator
Country
US
Launch date
2026-03-04
Launch site
AFETR
Launch vehicle
Mass (kg)
RCS (m²)

Purposes: comms

External: N2YO · Heavens-Above · Gunter

§ Orbital elements

Epoch: 2026-09-19T18:20:44.543616Z

Period
93.85 min
Inclination
53.1612°
Eccentricity
0.0000798
Mean motion
15.34401210 rev/d
Perigee alt
462.2 km
Apogee alt
463.2 km
Semi-major
6,840.8 km
B*
5.5167e-4
RAAN
353.3735°
Arg perigee
74.7246°
Mean anomaly
285.3845°
Rev number
3,206

§ Raw data

STARLINK-363281 68096U 26042AD  26262.76440444  .00018309  00000+0  55167-3 0  99912 68096  53.1612 353.3735 0000798  74.7246 285.3845 15.34401210 32069

JSON: /api/v1/satellites/68096 · /tle

For live sub-satellite position, see the globe view (requires WebGL).

§ Visibility from observer

Set your observer location to see the next 7 days of passes ≥ 10°. The values pass through the URL so the page stays shareable.

No JS? Fill the form by hand. The geolocation button needs JavaScript.